Hays, KS

5:58 AM CDT on September 24, 2017 (GMT -0500)
Hays Regional

Weather History for KHYS - May, 2013

Change the Weather History Date:

Wednesday, May 29, 2013

  Actual Average Record
Temperature  
Mean Temperature 70 °F -  
Max Temperature 82 °F 77 °F 100 °F (2000)
Min Temperature 57 °F 52 °F 44 °F (1997)
Cooling Degree Days 4    
Growing Degree Days 20 (Base 50)    
Moisture  
Dew Point 61 °F    
Average Humidity 70    
Maximum Humidity 88    
Minimum Humidity 43    
Precipitation  
Precipitation 0.00 in - - ()
Sea Level Pressure  
Sea Level Pressure 29.55 in    
Wind  
Wind Speed 20 mph (SE)    
Max Wind Speed 32 mph    
Max Gust Speed 41 mph    
Visibility 10 miles    
Events Thunderstorm    
Averages and records for this station are not official NWS values.
T = Trace of Precipitation, MM = Missing Value Source: NWS Daily Summary

Daily Weather History Graph

Daily Weather History Graph

Search for Another Location

Airport or City:

Trip Planner

Search our weather history database for the weather conditions in past years. The results will help you decide how hot, cold, wet, or windy it might be!

Date:

Astronomy

May. 29, 2013 Rise Set
Actual Time 6:14 AM CDT 8:54 PM CDT
Civil Twilight 5:43 AM CDT 9:25 PM CDT
Nautical Twilight 5:04 AM CDT 10:04 PM CDT
Astronomical Twilight 4:21 AM CDT 10:48 PM CDT
Moon 12:19 AM CDT (5/29) 11:14 AM CDT (5/29)
Length of Visible Light 15h 41m
Length of Day
14h 39m
Waning Gibbous, 73% of the Moon is Illuminated
May 29
Waning Gibbous
May 31
Last Quarter
Jun 8
New
Jun 16
First Quarter
Jun 23
Full

Hourly Weather History & Observations

Time (CDT) Temp. Heat Index Dew Point Humidity Pressure Visibility Wind Dir Wind Speed Gust Speed Precip Events Conditions
12:15 AM 71.6 °F - 48.2 °F 43% 29.58 in 10.0 mi South 21.9 mph 27.6 mph N/A   Clear
12:35 AM 73.4 °F - 51.8 °F 47% 29.59 in 10.0 mi South 20.7 mph 31.1 mph N/A   Clear
12:55 AM 71.6 °F - 51.8 °F 50% 29.59 in 10.0 mi South 21.9 mph 27.6 mph N/A   Clear
1:15 AM 71.6 °F - 53.6 °F 53% 29.60 in 10.0 mi South 23.0 mph 28.8 mph N/A   Clear
1:35 AM 69.8 °F - 57.2 °F 64% 29.60 in 10.0 mi South 18.4 mph 27.6 mph N/A   Clear
1:55 AM 68.0 °F - 57.2 °F 68% 29.59 in 10.0 mi South 16.1 mph 21.9 mph N/A   Clear
2:15 AM 68.0 °F - 59.0 °F 73% 29.58 in 10.0 mi South 15.0 mph - N/A   Clear
2:35 AM 69.8 °F - 60.8 °F 73% 29.57 in 10.0 mi South 18.4 mph 23.0 mph N/A   Clear
2:55 AM 69.8 °F - 60.8 °F 73% 29.57 in 10.0 mi South 19.6 mph 29.9 mph N/A   Clear
3:15 AM 69.8 °F - 62.6 °F 78% 29.57 in 10.0 mi South 18.4 mph 28.8 mph N/A   Clear
3:35 AM 69.8 °F - 62.6 °F 78% 29.57 in 10.0 mi SSE 19.6 mph 26.5 mph N/A   Clear
3:55 AM 69.8 °F - 62.6 °F 78% 29.58 in 10.0 mi SSE 15.0 mph 20.7 mph N/A   Clear
4:15 AM 69.8 °F - 62.6 °F 78% 29.59 in 10.0 mi South 19.6 mph 26.5 mph N/A   Clear
4:35 AM 69.8 °F - 62.6 °F 78% 29.58 in 10.0 mi South 17.3 mph 27.6 mph N/A   Clear
4:55 AM 69.8 °F - 62.6 °F 78% 29.59 in 10.0 mi South 16.1 mph 23.0 mph N/A   Clear
5:15 AM 69.8 °F - 62.6 °F 78% 29.59 in 10.0 mi South 16.1 mph 24.2 mph N/A   Clear
5:35 AM 69.8 °F - 62.6 °F 78% 29.60 in 10.0 mi South 17.3 mph 24.2 mph N/A   Partly Cloudy
5:55 AM 69.8 °F - 62.6 °F 78% 29.61 in 10.0 mi South 18.4 mph 24.2 mph N/A   Mostly Cloudy
6:15 AM 69.8 °F - 62.6 °F 78% 29.61 in 10.0 mi South 17.3 mph 23.0 mph N/A   Mostly Cloudy
6:35 AM 69.8 °F - 62.6 °F 78% 29.60 in 10.0 mi South 18.4 mph 26.5 mph N/A   Clear
6:55 AM 69.8 °F - 62.6 °F 78% 29.61 in 10.0 mi South 17.3 mph - N/A   Clear
7:15 AM 69.8 °F - 62.6 °F 78% 29.60 in 10.0 mi South 11.5 mph - N/A   Clear
7:35 AM 69.8 °F - 62.6 °F 78% 29.60 in 10.0 mi South 12.7 mph - N/A   Clear
7:55 AM 69.8 °F - 62.6 °F 78% 29.60 in 10.0 mi South 9.2 mph - N/A   Clear
8:15 AM 69.8 °F - 62.6 °F 78% 29.61 in 10.0 mi South 16.1 mph 19.6 mph N/A   Clear
8:35 AM 71.6 °F - 62.6 °F 73% 29.61 in 10.0 mi SSE 19.6 mph - N/A   Clear
8:55 AM 71.6 °F - 62.6 °F 73% 29.60 in 10.0 mi ESE 16.1 mph 23.0 mph N/A   Clear
9:15 AM 71.6 °F - 62.6 °F 73% 29.60 in 10.0 mi ESE 23.0 mph 28.8 mph N/A   Clear
9:35 AM 73.4 °F - 62.6 °F 69% 29.60 in 10.0 mi SSE 26.5 mph 31.1 mph N/A   Clear
9:55 AM 73.4 °F - 64.4 °F 73% 29.60 in 10.0 mi East 23.0 mph 28.8 mph N/A   Scattered Clouds
10:15 AM 77.0 °F - 64.4 °F 65% 29.59 in 10.0 mi SSE 25.3 mph 32.2 mph N/A   Mostly Cloudy
10:35 AM 75.2 °F - 64.4 °F 69% 29.58 in 10.0 mi South 26.5 mph 31.1 mph N/A   Mostly Cloudy
10:55 AM 78.8 °F - 66.2 °F 65% 29.56 in 10.0 mi South 28.8 mph 34.5 mph N/A   Mostly Cloudy
11:15 AM 80.6 °F 82.7 °F 66.2 °F 61% 29.56 in 10.0 mi SSE 27.6 mph 38.0 mph N/A   Mostly Cloudy
11:35 AM 80.6 °F 82.7 °F 66.2 °F 61% 29.55 in 10.0 mi SSE 32.2 mph 36.8 mph N/A   Mostly Cloudy
11:55 AM 82.4 °F 84.6 °F 66.2 °F 58% 29.55 in 10.0 mi East 28.8 mph 40.3 mph N/A   Mostly Cloudy
12:15 PM 82.4 °F 84.6 °F 66.2 °F 58% 29.54 in 10.0 mi ENE 31.1 mph 41.4 mph N/A   Partly Cloudy
12:35 PM 82.4 °F 84.6 °F 66.2 °F 58% 29.54 in 10.0 mi East 32.2 mph 40.3 mph N/A   Scattered Clouds
12:55 PM 82.4 °F 83.9 °F 64.4 °F 54% 29.55 in 10.0 mi NE 31.1 mph 41.4 mph N/A   Mostly Cloudy
1:15 PM 82.4 °F 83.9 °F 64.4 °F 54% 29.54 in 10.0 mi NE 29.9 mph 38.0 mph N/A   Overcast
1:35 PM 82.4 °F 83.9 °F 64.4 °F 54% 29.53 in 10.0 mi East 28.8 mph 35.7 mph N/A   Overcast
1:55 PM 80.6 °F 82.3 °F 64.4 °F 58% 29.55 in 10.0 mi ENE 21.9 mph 32.2 mph N/A   Overcast
2:15 PM 77.0 °F - 64.4 °F 65% 29.55 in 10.0 mi NNE 27.6 mph 35.7 mph N/A Thunderstorm Mostly Cloudy
2:35 PM 71.6 °F - 64.4 °F 78% 29.54 in 10.0 mi SSE 16.1 mph 23.0 mph N/A Thunderstorm Thunderstorm
2:55 PM 75.2 °F - 66.2 °F 73% 29.52 in 10.0 mi ESE 26.5 mph 32.2 mph N/A   Scattered Clouds
3:15 PM 75.2 °F - 64.4 °F 69% 29.53 in 10.0 mi East 26.5 mph 33.4 mph N/A   Scattered Clouds
3:35 PM 73.4 °F - 64.4 °F 73% 29.52 in 10.0 mi SE 27.6 mph 39.1 mph N/A   Scattered Clouds
3:55 PM 73.4 °F - 64.4 °F 73% 29.51 in 10.0 mi SSE 28.8 mph 35.7 mph N/A Thunderstorm Mostly Cloudy
4:15 PM 71.6 °F - 64.4 °F 78% 29.50 in 10.0 mi SSE 23.0 mph 32.2 mph N/A   Scattered Clouds
4:35 PM 69.8 °F - 55.4 °F 60% 29.49 in 10.0 mi South 21.9 mph 34.5 mph N/A   Partly Cloudy
4:55 PM 68.0 °F - 55.4 °F 64% 29.48 in 10.0 mi South 19.6 mph 26.5 mph N/A   Clear
5:15 PM 68.0 °F - 57.2 °F 68% 29.46 in 10.0 mi SSE 20.7 mph 25.3 mph N/A   Clear
5:35 PM 69.8 °F - 60.8 °F 73% 29.46 in 10.0 mi SSE 25.3 mph 28.8 mph N/A   Clear
5:55 PM 73.4 °F - 60.8 °F 65% 29.44 in 10.0 mi SSE 24.2 mph 33.4 mph N/A   Clear
6:15 PM 73.4 °F - 60.8 °F 65% 29.45 in 10.0 mi SSE 19.6 mph 31.1 mph N/A   Clear
6:35 PM 73.4 °F - 62.6 °F 69% 29.45 in 10.0 mi SE 23.0 mph 32.2 mph N/A   Scattered Clouds
6:55 PM 73.4 °F - 64.4 °F 73% 29.43 in 10.0 mi SSE 25.3 mph 33.4 mph N/A   Mostly Cloudy
7:15 PM 71.6 °F - 64.4 °F 78% 29.45 in 10.0 mi SSE 25.3 mph 33.4 mph N/A   Mostly Cloudy
7:35 PM 71.6 °F - 62.6 °F 73% 29.45 in 10.0 mi SSE 21.9 mph 33.4 mph N/A   Overcast
7:55 PM 71.6 °F - 64.4 °F 78% 29.45 in 10.0 mi SSE 23.0 mph 31.1 mph N/A   Overcast
8:15 PM 71.6 °F - 64.4 °F 78% 29.45 in 10.0 mi SSE 18.4 mph - N/A   Overcast
8:35 PM 73.4 °F - 64.4 °F 73% 29.46 in 10.0 mi SSE 21.9 mph 34.5 mph N/A   Overcast
8:55 PM 71.6 °F - 64.4 °F 78% 29.46 in 10.0 mi SSE 19.6 mph 31.1 mph N/A   Overcast
9:15 PM 66.2 °F - 53.6 °F 64% 29.58 in 10.0 mi NNW 18.4 mph 31.1 mph N/A   Overcast
9:35 PM 62.6 °F - 51.8 °F 68% 29.60 in 10.0 mi NNW 15.0 mph 26.5 mph N/A Thunderstorm Overcast
9:55 PM 60.8 °F - 51.8 °F 72% 29.60 in 10.0 mi North 12.7 mph - N/A Thunderstorm Overcast
10:15 PM 60.8 °F - 53.6 °F 77% 29.57 in 10.0 mi North 11.5 mph - N/A   Mostly Cloudy
10:35 PM 59.0 °F - 53.6 °F 82% 29.59 in 10.0 mi NNE 15.0 mph - N/A   Clear
10:55 PM 57.2 °F - 53.6 °F 88% 29.60 in 10.0 mi NNE 12.7 mph - N/A   Partly Cloudy
11:15 PM 57.2 °F - 53.6 °F 88% 29.59 in 10.0 mi NNE 11.5 mph - N/A   Mostly Cloudy
11:35 PM 59.0 °F - 53.6 °F 82% 29.58 in 10.0 mi NE 10.4 mph - N/A   Overcast
11:55 PM 59.0 °F - 53.6 °F 82% 29.58 in 10.0 mi ENE 9.2 mph - N/A Thunderstorm Overcast